NUSAT-15 (KATHERINE)

Last updated on Mon Sep 18 2023 00:02:25 GMT+0000 (Coordinated Universal Time)

1 46830U 20079D 23260.33347955 .05331136 23464-5 80888-3 0 9992 2 46830 97.1235 337.4980 0011902 265.1534 94.8404 16.34076651161122

Satellite not in orbit

NUSAT-15 (KATHERINE)